Home > Weather > Göppingen > Past weeks

Flag for Germany Past Weather in Göppingen, Baden-Württemberg, Germany — Yesterday and Last 2 Weeks

Now
64 °F

Passing clouds.


Feels Like: 64 °F
Forecast: 63 / 78 °F
Wind: 1 mph from Southeast

Location: Stuttgart-Echterdingen

Current Time: Jul 24, 2016 at 3:15:56 AM

Latest Report: Jul 24, 2016 at 2:20 AM


Visibility: N/A

Pressure: 30.09 "Hg

Humidity: 100%

Dew Point: 64 °F

Location of GöppingenLocation

Past Weather in Göppingen — Graph

°F

Göppingen Temperature Yesterday

Maximum temperature yesterday: 77 °F (at 4:50 PM)
Minimum temperature yesterday: 63 °F (at 2:50 AM)
Average temperature yesterday: 68 °F

High & Low Weather Summary for the Past Weeks

 TemperatureHumidityPressure
High91 °F (Jul 20, 4:20 PM)100% (Jul 18, 6:20 AM)30.33 "Hg (Jul 18, 6:20 AM)
Low48 °F (Jul 15, 5:50 AM)28% (Jul 20, 4:50 PM)29.89 "Hg (Jul 10, 5:20 PM)
Average68 °F69%30.09 "Hg
* Reported Jul 9 2:20 AM — Jul 24 2:20 AM, Göppingen, Weather by CustomWeather, © 2016

Note: Actual official high and low records may vary slightly from our data, if they occured in-between our weather recording intervals... More about our weather records

Advertising

Göppingen Weather History for the Previous 24 Hours

Scroll right to see more
 ConditionsComfort  
Time TempWeatherWind HumidityBarometerVisibility
2:20 AM
Sun, Jul 24
64 °FPassing clouds.1 mph100%30.09 "HgN/A
1:50 AM66 °FSprinkles. Passing clouds.2 mph94%30.12 "HgN/A
1:20 AM66 °FScattered showers. Partly cloudy.1 mph94%30.12 "HgN/A
12:50 AM66 °FPassing clouds.2 mph94%30.12 "HgN/A
12:20 AM66 °FScattered showers. Passing clouds.5 mph94%30.12 "HgN/A
11:50 PM
Sat, Jul 23
68 °FScattered showers. Passing clouds.3 mph94%30.09 "HgN/A
11:20 PM68 °FSprinkles. Passing clouds.2 mph94%30.09 "HgN/A
10:50 PM68 °FSprinkles. Passing clouds.3 mph94%30.09 "HgN/A
10:20 PM68 °FClear.2 mph88%30.09 "Hg10 mi
9:50 PM68 °FBroken clouds.6 mph94%30.09 "HgN/A
9:20 PM68 °FSprinkles. Broken clouds.9 mph94%30.07 "HgN/A
8:50 PM70 °FBroken clouds.5 mph88%30.07 "HgN/A
8:20 PM70 °FBroken clouds.1 mph83%30.07 "HgN/A
7:50 PM70 °FBroken clouds.3 mph88%30.07 "HgN/A
7:20 PM72 °FBroken clouds.2 mph83%30.07 "HgN/A
6:50 PM72 °FThunderstorms. Broken clouds.5 mph78%30.07 "HgN/A
6:20 PM75 °FBroken clouds.6 mph65%30.04 "HgN/A
5:50 PM75 °FBroken clouds.7 mph65%30.04 "HgN/A
5:20 PM77 °FBroken clouds.3 mph61%30.04 "HgN/A
4:50 PM77 °FBroken clouds.5 mph61%30.04 "HgN/A
4:20 PM75 °FBroken clouds.6 mph65%30.07 "HgN/A
3:50 PM75 °FBroken clouds.3 mph65%30.07 "HgN/A
3:20 PM75 °FBroken clouds.6 mph69%30.07 "HgN/A
2:50 PM73 °FBroken clouds.5 mph74%30.07 "HgN/A
2:20 PM73 °FBroken clouds.3 mph74%30.07 "HgN/A
1:50 PM72 °FBroken clouds.5 mph73%30.09 "HgN/A
1:20 PM70 °FBroken clouds.1 mph83%30.07 "HgN/A
12:50 PM70 °FBroken clouds.5 mph78%30.07 "HgN/A
12:20 PM70 °FPartly sunny.5 mph83%30.07 "HgN/A
11:50 AM68 °FBroken clouds.1 mph83%30.07 "HgN/A
11:20 AM68 °FBroken clouds.2 mph83%30.07 "HgN/A
10:50 AM68 °FBroken clouds.2 mph83%30.07 "HgN/A
10:20 AM66 °FBroken clouds.3 mph88%30.07 "HgN/A
9:50 AM66 °FBroken clouds.2 mph88%30.07 "HgN/A
9:20 AM66 °FBroken clouds.6 mph88%30.07 "HgN/A
8:50 AM66 °FBroken clouds.5 mph88%30.04 "HgN/A
8:20 AM66 °FPartly sunny.2 mph88%30.04 "HgN/A
7:50 AM66 °FScattered clouds.5 mph88%30.04 "HgN/A
7:20 AM63 °FScattered clouds.3 mph100%30.04 "Hg6 mi
6:50 AM63 °FBroken clouds.2 mph100%30.04 "Hg5 mi
6:20 AM64 °FPassing clouds.1 mph94%30.04 "Hg6 mi
5:50 AM64 °FPassing clouds.3 mph94%30.04 "HgN/A
5:20 AM64 °FPassing clouds.2 mph94%30.04 "HgN/A
4:50 AM64 °FPassing clouds.1 mph94%30.04 "HgN/A
4:20 AM64 °FPassing clouds.1 mph94%30.04 "HgN/A
3:50 AM64 °FPartly cloudy.3 mph94%30.04 "HgN/A
3:20 AM64 °FPassing clouds.No wind94%30.04 "HgN/A
Weather by CustomWeather, © 2016

See weather overviewHow to use our weather pages